#timestamp,LO_Frequency,Hit,StdDev 
1638885615.5,286047000.8,N
1638885635.3,286047000.7,N
1638885655.1,286047002.8,Y
1638885675.9,286047000.4,P
1638885695.7,286046998.6,P
1638885715.6,286046998.1,N
1638885735.4,286046999.0,N
1638885755.2,286047001.2,N
1638885775.1,286047000.8,N
1638885776.0,286047000.8,N
1638885795.8,286047000.8,N
1638885815.6,286046998.6,N
1638885835.5,286046999.3,N
1638885855.3,286046998.5,N
1638885875.2,286047000.7,N
1638885895.0,286046998.5,N
1638885895.9,286046998.5,N
1638885915.7,286046998.9,N
1638885935.6,286047001.1,N
1638885955.4,286047001.2,N
1638885975.3,286046999.5,N
1638885995.1,286046997.2,N
1638885996.0,286046997.2,N
1638886015.8,286046997.7,N
1638886035.7,286046997.7,N
1638886055.5,286046996.5,N
1638886075.3,286046998.4,N
1638886095.2,286047000.6,N
1638886115.0,286047002.7,N
1638886115.9,286047002.7,N
1638886135.8,286047002.6,N
1638886155.6,286047002.1,N
1638886175.4,286047002.1,N
1638886195.3,286047000.2,N
1638886215.1,286047000.4,N
1638886235.8,286047002.7,N
1638886255.7,286047001.3,N
1638886275.5,286047002.6,N
1638886295.4,286046999.7,N
1638886315.2,286047002.6,N
1638886335.0,286047001.0,N
1638886335.9,286047001.0,N
1638886355.8,286046998.9,N
1638886375.6,286046998.9,N
1638886395.4,286046999.9,N
1638886415.3,286047000.3,N
1638886435.1,286047000.5,N
1638886455.9,286047000.7,N
1638886475.7,286047000.6,N
1638886495.5,286046998.4,N
1638886515.4,286047001.0,N
1638886535.2,286047000.7,N
1638886555.1,286047000.9,N
1638886556.0,286047000.9,N
1638886575.8,286046998.2,N
1638886595.6,286047002.5,N
1638886615.5,286047000.0,N
1638886635.3,286047000.3,N
1638886655.1,286046999.9,N
1638886675.9,286046999.9,N
1638886695.7,286047000.6,N
1638886715.6,286047000.6,N
1638886735.4,286047000.0,N
1638886755.2,286047000.0,N
1638886775.1,286046999.8,N
1638886776.0,286046999.8,N
1638886795.8,286046999.8,N
1638886815.6,286047000.1,N
1638886835.5,286047002.3,N
1638886855.3,286047002.4,N
1638886875.2,286047002.6,N
1638886895.9,286047002.6,N
1638886915.7,286047002.4,N
1638886935.6,286047000.0,N
1638886955.4,286047000.2,N
1638886975.2,286046999.7,N
1638886995.1,286047002.4,N
1638886996.0,286047002.4,N
1638887015.8,286047002.6,N
1638887035.7,286047001.5,N
1638887055.5,286047003.8,Y
1638887075.3,286047002.6,P
1638887095.2,286047002.1,N
1638887115.0,286047001.4,N
1638887115.9,286047001.4,N
1638887135.8,286047004.3,Y
1638887155.6,286047000.3,P
1638887175.4,286046999.7,N
1638887195.3,286046998.6,N
1638887215.1,286046997.4,N
1638887235.9,286046996.9,N
1638887255.7,286046999.5,N
1638887275.5,286046996.6,N
1638887295.4,286046996.6,N
1638887315.2,286046996.9,N
1638887335.0,286046997.4,N
1638887335.9,286046997.4,N
1638887355.8,286046996.9,N
1638887375.6,286046996.7,N
1638887395.5,286046996.7,N
1638887415.3,286046999.6,N
1638887435.1,286046996.7,N
1638887455.9,286046999.5,N
1638887475.7,286046997.0,N
1638887495.6,286046997.5,N
1638887515.4,286046996.3,N
1638887535.2,286046994.2,Y
1638887555.1,286046995.4,P
1638887556.0,286046995.4,P
1638887575.8,286046997.2,N
1638887595.6,286046996.6,Y
1638887615.8,286047002.6,P
1638887635.7,286047001.9,N
1638887655.5,286047004.3,N
1638887675.4,286047003.5,N
1638887695.2,286047003.2,N
1638887715.0,286047004.8,N
1638887715.9,286047004.8,N
1638887735.8,286047002.9,N
1638887755.6,286047003.5,N
1638887775.4,286047003.6,N
1638887795.3,286047003.5,N
1638887815.1,286047003.9,N
1638887835.9,286047003.3,N
1638887855.7,286047001.3,N
1638887875.5,286047001.4,N
1638887895.4,286046999.7,N
1638887915.2,286047002.5,N
1638887935.0,286046999.7,N
1638887935.9,286046999.7,N
1638887955.8,286047000.0,N
1638887975.6,286047001.8,N
1638887995.5,286047003.9,N
1638888015.3,286047003.4,N
1638888035.1,286047003.6,N
1638888055.9,286047001.4,N
1638888075.7,286047004.4,N
1638888095.6,286047002.6,N
1638888115.4,286047001.8,N
1638888135.2,286047003.9,N
1638888155.1,286047003.9,N
1638888156.0,286047003.9,N
1638888175.8,286047002.9,N
1638888195.6,286047005.6,Y
1638888215.5,286047002.3,P
1638888235.3,286047002.2,P
1638888255.2,286047002.1,P
1638888275.9,286047002.1,Y
1638888295.7,286047001.0,P
1638888315.6,286047000.4,N
1638888335.4,286047000.3,N
1638888355.2,286046998.2,N
1638888375.1,286046998.6,N
1638888376.0,286046998.6,N
1638888395.8,286046998.6,N
1638888415.7,286046998.9,N
1638888435.5,286046999.1,N
1638888455.3,286046996.9,N
1638888475.2,286046997.0,N
1638888495.0,286046996.9,N
1638888495.9,286046996.9,N
1638888515.8,286046999.0,N
1638888535.6,286046999.0,N
1638888555.4,286046998.7,N
1638888575.3,286046998.4,N
1638888595.1,286047001.2,N
1638888615.9,286046999.0,N
1638888635.7,286046998.1,N
1638888655.5,286046998.8,N
1638888675.4,286046998.1,N
1638888695.2,286046998.2,N
1638888715.0,286046999.5,N
1638888715.9,286046999.5,N
1638888735.8,286046999.5,N
1638888755.6,286046999.1,N
1638888775.5,286046999.3,N
1638888795.3,286046999.2,N
1638888815.1,286046998.7,N
1638888835.9,286046998.2,N
1638888855.7,286046998.8,N
1638888875.5,286046999.2,N
1638888895.4,286046999.1,N
1638888915.2,286046998.8,N
1638888935.1,286046999.0,N
1638888936.0,286046999.0,N
1638888955.8,286046997.0,Y
1638888975.6,286047001.1,P
1638888995.5,286047001.1,N
1638889015.3,286046998.9,N
1638889035.2,286047011.9,Y
1638889055.9,286046998.1,P
1638889075.7,286046998.8,N
1638889095.6,286046999.1,N
1638889115.4,286046998.9,N
1638889135.2,286047000.7,N
1638889155.1,286047000.8,N
1638889156.0,286047000.8,N
1638889175.8,286047000.6,N
1638889195.7,286046998.1,N
